EW6791 Weather Reports


Display with metric or nautical units.
time (UTC)temp
F
wind
direction
speed
MPH
gust
MPH
rain 1hr
in
rain 24hr
in
rain mn
in
humidity
%
barometer
mb
20260905043032 68 34 2.0 4.0 0.00 0.00 0.00 70 1013.4
20260905041519 68 38 2.0 4.0 0.00 0.00 0.00 69 1013.4
20260905040020 68 35 1.0 5.0 0.00 0.00 0.00 70 1013.7
20260905034520 68 46 0.0 2.0 0.00 0.00 0.00 69 1013.7
20260905033015 68 44 1.0 2.0 0.00 0.00 0.00 69 1013.7
20260905031515 68 47 0.0 4.0 0.00 0.00 0.00 68 1013.9
20260905030014 68 38 2.0 5.0 0.00 0.00 0.00 68 1013.9
20260905024513 68 30 2.0 5.0 0.00 0.00 0.00 68 1014.0
20260905023012 68 31 3.0 5.0 0.00 0.00 0.00 68 1014.0
20260905021513 68 31 2.0 5.0 0.00 0.00 0.00 69 1014.0
20260905020013 68 40 2.0 5.0 0.00 0.00 0.00 68 1014.1
20260905014512 68 35 2.0 5.0 0.00 0.00 0.00 70 1014.1
20260905013011 68 30 4.0 8.0 0.00 0.00 0.00 70 1014.0
20260905011511 69 30 3.0 6.0 0.00 0.00 0.00 69 1014.0
20260905010015 68 32 2.0 4.0 0.00 0.00 0.00 67 1014.0
20260905004509 69 40 3.0 6.0 0.00 0.00 0.00 67 1013.8
20260905003017 69 34 2.0 4.0 0.00 0.00 0.00 69 1013.9
20260905001509 69 38 1.0 5.0 0.00 0.00 0.00 69 1013.7
20260905000108 69 34 3.0 6.0 0.00 0.00 0.00 71 1013.5
20260904234507 69 33 2.0 4.0 0.00 0.00 0.00 69 1013.3
20260904233006 69 38 2.0 4.0 0.00 0.00 0.00 68 1013.2
20260904231506 69 37 1.0 4.0 0.00 0.00 0.00 68 1013.0
20260904230008 69 34 2.0 6.0 0.00 0.00 0.00 68 1013.0
20260904224504 69 39 2.0 4.0 0.00 0.00 0.00 68 1013.0
20260904223012 69 37 3.0 6.0 0.00 0.00 0.00 68 1012.9
20260904221506 69 33 0.0 5.0 0.00 0.00 0.00 67 1012.8
20260904220005 69 33 3.0 5.0 0.00 0.00 0.00 66 1012.9
20260904214508 69 32 3.0 8.0 0.00 0.00 0.00 66 1012.8
20260904213004 69 31 3.0 8.0 0.00 0.00 0.00 65 1012.7
20260904211505 70 32 4.0 6.0 0.00 0.00 0.00 61 1012.7
20260904204601 70 34 4.0 7.0 0.00 0.00 0.00 60 1012.5
20260904203057 70 44 5.0 8.0 0.00 0.00 0.00 62 1012.7
20260904201556 70 29 4.0 7.0 0.00 0.00 0.00 63 1012.8
20260904200055 70 30 4.0 8.0 0.00 0.00 0.00 64 1012.9
20260904194602 69 30 5.0 8.0 0.00 0.00 0.00 64 1012.9
20260904193058 69 29 4.0 9.0 0.00 0.00 0.00 65 1012.8
20260904191554 69 33 5.0 10.0 0.00 0.00 0.00 65 1012.7
20260904190054 69 32 6.0 11.0 0.00 0.00 0.00 65 1012.8
20260904184557 70 53 3.0 8.0 0.00 0.00 0.00 65 1012.9
20260904183104 70 44 7.0 11.0 0.00 0.00 0.00 64 1012.8
20260904181551 70 34 5.0 10.0 0.00 0.00 0.00 65 1012.8
20260904180113 70 34 5.0 10.0 0.00 0.00 0.00 67 1012.7
20260904174557 70 27 5.0 8.0 0.00 0.00 0.00 67 1012.7
20260904173050 70 25 5.0 7.0 0.00 0.00 0.00 67 1012.9
20260904171553 70 34 2.0 5.0 0.00 0.00 0.00 68 1013.1
20260904170051 70 35 4.0 5.0 0.00 0.00 0.00 68 1013.2
20260904164546 70 52 1.0 4.0 0.00 0.00 0.00 68 1013.5
20260904163046 70 39 1.0 4.0 0.00 0.00 0.00 67 1013.7
20260904161549 70 60 2.0 5.0 0.00 0.00 0.00 67 1013.6
20260904160043 70 40 1.0 4.0 0.00 0.00 0.00 68 1013.6
20260904154546 70 49 1.0 4.0 0.00 0.00 0.00 69 1013.8
20260904153050 70 48 0.0 0.0 0.00 0.00 0.00 69 1014.1
20260904151540 69 39 0.0 0.0 0.00 0.00 0.00 70 1014.4
20260904150040 69 42 0.0 0.0 0.00 0.00 0.00 69 1014.6
20260904144547 69 44 0.0 0.0 0.00 0.00 0.00 69 1014.4
20260904143039 69 44 0.0 0.0 0.00 0.00 0.00 69 1014.1
20260904141537 69 44 0.0 0.0 0.00 0.00 0.00 70 1014.0
20260904140048 69 44 0.0 0.0 0.00 0.00 0.00 70 1013.9
20260904134535 69 44 0.0 0.0 0.00 0.00 0.00 69 1014.0
20260904133034 69 46 0.0 0.0 0.00 0.00 0.00 69 1014.2
20260904131531 69 46 0.0 0.0 0.00 0.00 0.00 69 1014.1
20260904130028 68 46 0.0 0.0 0.00 0.00 0.00 68 1014.0
20260904124527 68 45 0.0 0.0 0.00 0.00 0.00 69 1013.6
20260904123026 68 49 0.0 0.0 0.00 0.00 0.00 68 1013.5
20260904121524 68 55 0.0 0.0 0.00 0.00 0.00 70 1013.8
20260904120024 67 65 0.0 0.0 0.00 0.00 0.00 71 1013.7
20260904114525 67 64 0.0 0.0 0.00 0.00 0.00 72 1013.5
20260904113029 67 64 0.0 0.0 0.00 0.00 0.00 72 1013.1
20260904111523 67 65 0.0 0.0 0.00 0.00 0.00 72 1013.1
20260904110020 67 65 0.0 0.0 0.00 0.00 0.00 72 1012.9
20260904104519 67 65 0.0 0.0 0.00 0.00 0.00 72 1012.7
20260904103019 67 65 0.0 0.0 0.00 0.00 0.00 72 1012.7
20260904101518 67 65 0.0 0.0 0.00 0.00 0.00 71 1013.1
20260904100017 67 42 0.0 1.0 0.00 0.00 0.00 70 1012.7
20260904094526 67 39 0.0 0.0 0.00 0.00 0.00 70 1012.6
20260904093014 67 326 0.0 0.0 0.00 0.00 0.00 69 1012.9
20260904091513 67 326 0.0 0.0 0.00 0.00 0.00 69 1012.9
20260904090013 67 326 0.0 0.0 0.00 0.00 0.00 70 1012.9
20260904084512 67 326 0.0 0.0 0.00 0.00 0.00 71 1012.9
20260904083012 67 326 0.0 0.0 0.00 0.00 0.00 72 1013.0
20260904081511 67 326 0.0 0.0 0.00 0.00 0.00 71 1012.8
20260904080010 67 326 0.0 0.0 0.00 0.00 0.00 71 1013.1
20260904074509 67 326 0.0 0.0 0.00 0.00 0.00 71 1013.1
20260904073010 67 326 0.0 0.0 0.00 0.00 0.00 71 1012.9
20260904071507 67 326 0.0 0.0 0.00 0.00 0.00 71 1012.9
20260904070007 67 326 0.0 0.0 0.00 0.00 0.00 72 1013.0
20260904064504 67 326 0.0 0.0 0.00 0.00 0.00 72 1013.4
20260904063006 67 326 0.0 0.0 0.00 0.00 0.00 73 1013.8
20260904061504 67 326 0.0 0.0 0.00 0.00 0.00 73 1013.7
20260904060002 67 326 0.0 0.0 0.00 0.00 0.00 73 1013.4
20260904054502 67 326 0.0 0.0 0.00 0.00 0.00 73 1013.6
20260904053001 67 324 0.0 0.0 0.00 0.00 0.00 72 1013.8
20260904051601 67 311 0.0 0.0 0.00 0.00 0.00 72 1013.7
20260904050059 66 43 0.0 0.0 0.00 0.00 0.00 71 1013.5
20260904044557 67 43 0.0 0.0 0.00 0.00 0.00 73 1013.4